Ogden, UT

6:35 AM MST on December 09, 2019 (GMT -0700)
Ogden-Hinckley

Weather History for KOGD - November, 2019

Change the Weather History Date:

Sunday, November 17, 2019

  Actual Average Record
Temperature  
Mean Temperature 42 °F -  
Max Temperature 53 °F 49 °F 65 °F (1981)
Min Temperature 32 °F 28 °F -1 °F (1955)
Degree Days  
Heating Degree Days 22    
Moisture  
Dew Point 24 °F    
Average Humidity 52    
Maximum Humidity 73    
Minimum Humidity 32    
Precipitation  
Precipitation 0.00 in - - ()
Sea Level Pressure  
Sea Level Pressure 30.30 in    
Wind  
Wind Speed 6 mph (South)    
Max Wind Speed 10 mph    
Max Gust Speed -    
Visibility 10 miles    
Events      
Averages and records for this station are not official NWS values.
T = Trace of Precipitation, MM = Missing Value Source: NWS Daily Summary

Daily Weather History Graph

Daily Weather History Graph

Search for Another Location

Airport or City:

Astronomy

Nov. 17, 2019 Rise Set
Actual Time 7:18 AM MST 5:07 PM MST
Civil Twilight 6:48 AM MST 5:37 PM MST
Nautical Twilight 6:14 AM MST 6:10 PM MST
Astronomical Twilight 5:42 AM MST 6:43 PM MST
Moon 9:47 PM MST (11/17) 12:07 PM MST (11/17)
Length of Visible Light 10h 48m
Length of Day
9h 49m
Waning Gibbous, 73% of the Moon is Illuminated
Nov 17
Waning Gibbous
Nov 19
Last Quarter
Nov 26
New
Dec 3
First Quarter
Dec 11
Full

Hourly Weather History & Observations

Time (MST) Temp. Windchill Dew Point Humidity Pressure Visibility Wind Dir Wind Speed Gust Speed Precip Events Conditions
12:53 AM 35.1 °F 29.3 °F 25.0 °F 67% 30.30 in 10.0 mi South 6.9 mph - N/A   Clear
1:53 AM 35.1 °F 27.4 °F 24.1 °F 64% 30.30 in 10.0 mi South 10.4 mph - N/A   Clear
2:53 AM 34.0 °F 27.2 °F 24.1 °F 67% 30.33 in 10.0 mi South 8.1 mph - N/A   Clear
3:53 AM 32.0 °F 24.8 °F 24.1 °F 73% 30.33 in 10.0 mi South 8.1 mph - N/A   Clear
4:53 AM 33.1 °F 24.9 °F 24.1 °F 70% 30.34 in 10.0 mi South 10.4 mph - N/A   Clear
5:53 AM 33.1 °F 25.5 °F 24.1 °F 70% 30.35 in 10.0 mi South 9.2 mph - N/A   Clear
6:53 AM 32.0 °F 24.2 °F 23.0 °F 69% 30.36 in 10.0 mi South 9.2 mph - N/A   Clear
7:53 AM 32.0 °F 25.6 °F 23.0 °F 69% 30.39 in 10.0 mi South 6.9 mph - N/A   Clear
9:53 AM 43.0 °F - 25.0 °F 49% 30.38 in 10.0 mi Calm Calm - N/A   Clear
10:53 AM 48.0 °F - 25.0 °F 41% 30.38 in 10.0 mi Calm Calm - N/A   Clear
11:53 AM 50.0 °F - 25.0 °F 38% 30.34 in 10.0 mi South 3.5 mph - N/A   Clear
12:53 PM 52.0 °F - 24.1 °F 34% 30.30 in 10.0 mi SSE 3.5 mph - N/A   Clear
1:53 PM 53.1 °F - 24.1 °F 32% 30.28 in 10.0 mi SSW 6.9 mph - N/A   Clear
2:53 PM 53.1 °F - 24.1 °F 32% 30.25 in 10.0 mi Variable 3.5 mph - N/A   Clear
3:53 PM 52.0 °F - 24.1 °F 34% 30.27 in 10.0 mi West 3.5 mph - N/A   Clear
4:10 PM 51.1 °F - 24.1 °F 35% 30.28 in 10.0 mi WNW 4.6 mph - N/A   Clear
4:11 PM 51.1 °F - 24.1 °F 35% 30.28 in 10.0 mi WNW 4.6 mph - N/A   Clear
4:53 PM 48.0 °F - 26.1 °F 42% 30.26 in 10.0 mi WNW 3.5 mph - N/A   Clear
5:53 PM 43.0 °F 41.3 °F 28.0 °F 56% 30.28 in 10.0 mi NNE 3.5 mph - N/A   Clear
6:53 PM 44.1 °F - 28.9 °F 55% 30.28 in 10.0 mi Calm Calm - N/A   Clear
7:53 PM 42.1 °F 39.2 °F 27.0 °F 55% 30.27 in 10.0 mi South 4.6 mph - N/A   Clear
8:53 PM 39.0 °F 34.0 °F 24.1 °F 55% 30.27 in 10.0 mi South 6.9 mph - N/A   Clear
9:53 PM 39.9 °F 35.1 °F 21.9 °F 49% 30.24 in 10.0 mi South 6.9 mph - N/A   Clear
10:53 PM 37.9 °F 31.5 °F 21.9 °F 53% 30.23 in 10.0 mi South 9.2 mph - N/A   Clear
11:53 PM 37.0 °F 31.0 °F 21.0 °F 52% 30.23 in 10.0 mi South 8.1 mph - N/A   Clear